Location: ???????
(48.5572°N, 37.7836°E)
Time: 10:41:53
(UTC+00:00)

Daily predictions for brighter satellites

Satellite Brightness Start Highest point End
(mag) Time Altitude Azimuth Time Altitude Azimuth Time Altitude Azimuth
Cosmos 2219 Rocket 4.1 17:41:21 10° N 17:45:03 18° NE 17:48:44 10° E
USA 276 2.7 17:42:27 10° W 17:45:30 46° SSW 17:48:32 10° SE
SAR-Lupe-1 4.4 17:45:05 10° N 17:48:40 71° WNW 17:52:13 10° SSW
SAR-Lupe-4 3.7 17:46:42 10° NNE 17:50:18 78° WNW 17:53:53 10° SSW
Cosmos 1680 Rocket 4.2 17:49:55 10° SSE 17:54:37 34° ESE 17:59:18 10° NE
Cosmos 1633 3.1 17:51:47 10° SSW 17:55:21 62° WNW 17:58:58 10° N
SL-16 R/B 2.3 17:53:10 10° NNW 17:58:51 73° ENE 18:04:31 10° SE
Resurs 01 Rocket 1.7 17:55:02 10° SSE 17:59:29 87° ENE 18:03:59 10° NNW
Cosmos 1076 Rocket 3.9 17:55:24 10° SSW 17:59:43 70° W 18:04:07 10° N
NOSS 2-1 (E) 4.4 17:58:37 10° SSE 18:00:45 16° ESE 18:02:53 10° ENE
ATLAS 5 CENTAUR R/B 3.9 17:58:50 10° NNW 18:02:57 24° NNE 18:07:38 10° E
Cosmos 1151 Rocket 3.7 18:00:11 10° N 18:04:18 39° ENE 18:08:05 12° SE
Meteor 2-3 Rocket 3.8 17:59:24 10° S 18:05:00 63° E 18:10:41 10° NNE
Terra 3.4 18:01:24 10° ESE 18:05:01 22° ENE 18:08:37 10° NNE
SPOT 3 Rocket 3.6 18:01:58 10° SSE 18:07:11 82° ENE 18:12:26 10° NNW
Cosmos 332 Rocket 4.2 18:03:49 10° NNW 18:08:40 66° WSW 18:13:31 10° S
CZ-2C R/B 4.1 18:06:58 10° NNE 18:11:16 42° E 18:15:28 10° S
COSMOS 2428 4.4 18:07:55 10° N 18:12:16 22° NE 18:16:34 10° E
Gbstr 26 Del rocket 3.2 18:09:00 10° WNW 18:12:34 46° SSW 18:15:42 14° SE
Cosmos 1933 3.5 18:12:26 10° NNW 18:16:30 77° W 18:20:30 10° S
Cosmos 1328 Rocket 4.2 18:13:27 10° N 18:17:41 41° ENE 18:21:03 15° SE
Cosmos 1766 Rocket 4.1 18:13:47 10° SSE 18:17:53 40° E 18:21:59 10° NNE
Cosmos 1271 Rocket 2.8 18:14:30 10° NNW 18:18:31 84° W 18:22:31 10° S
Meteor 2-19 Rocket 4.5 18:13:03 10° S 18:19:05 89° W 18:25:12 10° N
BREEZE-M DEB (TANK) 1.5 18:17:25 10° WSW 18:20:11 87° SSE 18:21:53 12° E
Cosmos 2195 Rocket 4.4 18:14:58 10° S 18:21:04 78° E 18:27:12 10° NNE
Cosmos 2098 Rocket 4.2 18:18:25 10° SW 18:21:32 38° WNW 18:25:20 10° N
SPOT 5 3.4 18:18:20 14° SE 18:21:33 36° ENE 18:25:38 10° N
IGS 5A 4.3 18:20:52 10° S 18:24:52 49° W 18:28:56 10° NNW
ARIANE 5 R/B 3.1 18:21:25 15° SE 18:24:53 47° ENE 18:29:09 10° N
Ariane Rocket 4.3 18:22:11 10° SSW 18:26:54 39° W 18:31:39 10° NNW
Landsat 7 4.4 18:24:58 10° S 18:29:37 55° W 18:34:19 10° NNW
Cosmos 1862 4.2 18:28:34 18° SE 18:30:52 31° E 18:34:24 10° NNE
Cosmos 1624 Rocket 4.1 18:26:38 10° NNW 18:31:50 65° ENE 18:35:46 18° SE
Cosmos 2082 Rocket 4.1 18:26:46 10° WSW 18:31:53 34° NW 18:37:04 10° NNE
ATLAS 3B R/B 4.1 18:25:57 10° NW 18:32:12 34° WSW 18:38:38 10° S
Cosmos 1782 2.8 18:28:39 10° N 18:32:42 85° W 18:36:08 14° S
ATLAS 2AS CENTAUR R/B 4.4 18:27:59 10° WSW 18:35:24 42° NNW 18:42:33 10° NE
Cosmos 2360 Rocket 2.3 18:32:24 10° NNW 18:38:02 69° ENE 18:42:09 19° SE
Cosmos 220 Rocket 4.0 18:34:25 10° NNW 18:38:47 87° WSW 18:41:57 19° SSE
BREEZE-M DEB (TANK) 3.4 18:36:10 10° W 18:39:14 40° SSW 18:43:57 17° SE
Cosmos 1420 Rocket 4.4 18:35:07 10° NNW 18:40:21 53° ENE 18:43:57 20° SE
Cosmos 1092 Rocket 4.3 18:36:04 10° SSW 18:42:20 73° WNW 18:48:41 10° N
NOSS 2-1 (C) 2.9 18:41:34 10° SSW 18:44:46 51° SE 18:48:02 10° NE
Cosmos 1174 3.7 18:42:13 10° NNW 18:45:08 46° NE 18:46:29 26° ESE
Cosmos 2026 Rocket 4.2 18:45:05 10° SSW 18:51:25 76° W 18:57:41 10° N
NOSS 2-1 (D) 2.7 18:49:15 10° SSW 18:52:31 63° SE 18:55:52 10° NE
COSMOS 2487 4.4 18:53:44 15° E 18:53:44 15° E 18:55:09 10° ENE
COSMOS 2455 3.6 18:51:48 19° SSE 18:55:04 31° ESE 19:00:16 10° NE
Cosmos 1833 4.4 18:51:32 10° S 18:57:05 51° ESE 19:02:41 10° NE
Meteor 1-27 Rocket 4.4 18:52:19 10° N 18:57:42 42° ENE 19:00:56 22° SE
Cosmos 2333 Rocket 2.6 18:53:21 10° NNW 18:58:54 52° NE 19:02:24 22° ESE
Cosmos 1500 Rocket 4.5 18:57:43 25° SE 18:59:15 31° E 19:03:10 10° NNE
Cosmos 2084 3.3 18:57:22 10° SW 19:01:26 87° NW 19:05:39 10° NE
GP-B 3.7 18:58:00 10° N 19:02:22 57° W 19:06:34 11° SSW
Cosmos 1452 Rocket 4.2 18:57:41 10° NNW 19:02:42 43° ENE 19:05:38 23° ESE
SPOT 1/Viking Rocket 4.5 18:57:49 10° S 19:02:45 45° W 19:07:46 10° NNW
Cosmos 1812 2.8 18:59:26 10° NNW 19:03:18 76° W 19:05:27 25° S
ERS-1 Rocket 2.9 19:00:25 22° SSE 19:03:46 90° WSW 19:08:50 10° NNW
Cosmos 2322 4.1 19:00:33 10° NNW 19:06:12 56° ENE 19:09:35 24° SE
Meteor 2-14 Rocket 4.4 19:04:51 12° S 19:10:38 88° E 19:16:49 10° N
Cosmos 2237 Rocket 4.0 19:07:06 10° N 19:11:32 23° NE 19:15:53 10° E
Cosmos 2322 Rocket 3.0 19:06:52 10° NW 19:12:10 43° WSW 19:16:06 17° S
Cosmos 2056 Rocket 3.8 19:07:23 10° NNW 19:12:40 62° WSW 19:15:56 23° S
H-2A R/B 4.2 19:09:21 10° NNE 19:13:13 35° E 19:14:12 31° SE
SL-27 R/B 2.4 19:11:16 19° SSW 19:13:44 87° WNW 19:17:22 10° NNE
Okean 3 Rocket 4.2 19:10:52 10° SSW 19:15:18 57° WNW 19:19:47 10° N
Cosmos 1408 Rocket 3.4 19:13:51 24° S 19:16:24 81° E 19:20:45 10° NNE
USA 234 4.1 19:10:28 10° E 19:16:42 48° NNE 19:22:56 10° WNW
Cosmos 1743 Rocket 3.9 19:18:39 33° SE 19:20:12 49° E 19:24:28 10° NNE
Sich 1 4.3 19:20:17 23° E 19:20:51 23° E 19:24:18 10° NE
Meteor 1-10 Rocket 4.2 19:15:57 10° NNW 19:21:32 84° W 19:24:47 26° S
Spot 2 Rocket 4.5 19:22:53 16° SSW 19:26:38 42° W 19:31:30 10° NNW
CZ-4B DEB 4.1 19:27:27 61° SSE 19:27:56 85° E 19:31:07 10° NNW
Cosmos 2219 Rocket 2.2 19:24:26 10° NNW 19:30:03 71° ENE 19:32:44 32° SE
BREEZE-M DEB (TANK) 4.3 19:29:57 10° W 19:34:52 89° NNW 19:57:49 10° E
Resurs 01 Rocket 4.4 19:35:08 10° WSW 19:36:37 11° W 19:38:07 10° WNW
Cosmos 2285 Rocket 4.0 19:32:00 10° NNW 19:38:20 72° ENE 19:41:26 32° SE
IRIDIUM 114 4.4 19:33:31 10° N 19:38:42 61° E 19:40:42 36° SSE
Cosmos 2266 Rocket 3.9 19:35:25 25° S 19:39:13 82° E 19:45:31 10° N
SL-16 R/B 4.5 19:37:00 10° N 19:40:33 17° NE 19:44:05 10° ENE
Cosmos 1515 Rocket 4.2 19:37:09 10° NNW 19:41:27 50° W 19:43:29 28° SSW
SL-16 R/B 4.2 19:38:19 10° NW 19:42:21 20° W 19:46:22 10° SW
Terra 2.3 19:40:07 28° SSW 19:42:24 55° W 19:47:06 10° NNW
Cosmos 2315 Rocket 4.0 19:36:40 10° N 19:43:01 74° E 19:46:05 33° SSE
IRIDIUM 103 4.3 19:42:39 10° N 19:47:53 72° E 19:49:50 39° SSE
ATLAS 5 CENTAUR R/B 2.4 19:42:59 10° NW 19:48:24 71° NE 19:51:35 30° ESE
Cosmos 2333 4.4 19:43:27 10° NNW 19:49:00 63° WSW 19:51:21 34° S
NOSS 2-1 (E) 4.3 19:47:43 10° WSW 19:50:49 39° NW 19:54:11 10° NNE
Cosmos 494 Rocket 4.3 19:52:49 40° SE 19:53:49 46° ESE 19:58:42 10° NNE
Cosmos 1515 4.1 19:51:16 10° N 19:54:55 45° ENE 19:55:12 44° E
Cosmos 2228 Rocket 3.0 19:52:11 10° N 19:56:38 85° W 19:57:48 49° S
COSMOS 2428 2.6 19:51:36 10° NNW 19:57:20 90° WSW 19:59:31 40° SSE
NOSS 3-1 (C) 4.3 19:50:13 10° NW 19:57:37 63° SW 20:02:01 31° SSE
SPOT 5 4.3 19:57:34 17° SW 19:59:45 26° W 20:03:29 10° NW
Okean 1 3.9 19:59:36 10° N 20:03:27 42° ENE 20:03:49 41° E
Cosmos 1602 4.1 20:04:10 46° E 20:04:10 46° E 20:07:47 10° NNE
CZ-3B R/B 2.5 19:55:23 10° WNW 20:05:17 86° NNE 20:06:28 45° ESE
IRIDIUM 106 4.3 20:00:53 10° N 20:06:09 81° W 20:08:01 41° S
Cosmos 1707 Rocket 3.7 20:03:47 10° N 20:08:07 58° ENE 20:08:49 51° ESE
Cosmos 1048 Rocket 3.8 20:08:26 42° S 20:10:12 80° ESE 20:15:21 10° NNE
USA 229 DEB 3.9 20:06:15 10° NW 20:13:33 74° SW 20:17:03 36° SSE
USA 229 3.9 20:06:21 10° NW 20:13:39 75° SW 20:17:08 36° SSE
USA 40 PKM 4.2 20:12:11 10° NW 20:15:50 81° NE 20:16:20 64° ESE
Cosmos 972 Rocket 4.1 20:15:36 29° SW 20:18:16 69° WNW 20:23:14 10° NNE
Cosmos 2219 4.5 20:18:35 24° ESE 20:18:45 24° ESE 20:23:18 10° NE
Cosmos 2360 Rocket 3.9 20:17:20 10° NW 20:21:29 21° W 20:23:55 16° SW
ALOS 2 3.1 20:21:59 42° E 20:22:43 47° ENE 20:26:56 10° N
Cosmos 1302 Rocket 4.5 20:18:25 10° NNW 20:23:31 51° ENE 20:25:09 37° ESE
USA 267 3.3 20:18:06 10° ENE 20:24:32 55° SE 20:27:32 31° SSW
CZ-4C R/B 4.2 20:19:16 10° NW 20:25:22 35° NNE 20:32:29 10° E
Cosmos 1805 Rocket 3.9 20:25:04 44° SW 20:26:15 62° WNW 20:30:39 10° N
COSMOS 2487 3.6 20:26:57 34° W 20:27:33 38° WNW 20:30:46 10° N
Cosmos 2084 Rocket 3.3 20:28:11 10° NW 20:32:23 84° NE 20:32:48 72° ESE
NOSS 0 Rocket 3.9 20:26:36 10° NNW 20:32:52 84° WSW 20:34:55 45° SSE
Cosmos 1980 3.7 20:28:14 10° NNW 20:33:55 73° ENE 20:35:42 45° SE
NOSS 3-1 (A) 4.2 20:26:39 10° NW 20:34:03 61° WSW 20:37:35 36° S
COSMOS 2455 3.4 20:34:50 10° SW 20:40:41 57° NW 20:46:40 10° NNE
Okean 1-7 4.4 20:38:28 10° NNE 20:42:07 27° ENE 20:42:40 26° E
Cosmos 2333 Rocket 3.4 20:38:05 10° NW 20:42:54 29° WSW 20:44:24 26° SW
NOSS 2-2 (D) 4.4 20:37:56 10° NW 20:43:03 73° NE 20:46:04 34° SE
Meteor 1-20 Rocket 4.4 20:40:57 37° SW 20:43:09 67° WNW 20:48:52 10° N
Lacrosse 5 2.2 20:46:41 47° ESE 20:46:41 47° ESE 20:51:01 10° ENE
COBE Rocket 4.3 20:47:22 43° SW 20:48:09 48° W 20:52:43 10° NNW
Cosmos 2297 Rocket 2.4 20:50:20 47° SE 20:51:02 50° ESE 20:56:30 10° NE
Cosmos 2237 Rocket 2.1 20:50:37 10° NNW 20:56:20 84° WSW 20:57:41 54° SSE
Thor Agena Rocket 4.5 20:53:37 10° NNE 20:58:06 31° E 20:58:26 31° ESE
Sich 1 4.1 20:57:14 32° WSW 20:58:20 37° WNW 21:02:22 10° N
USA 234 3.2 20:55:40 28° ESE 20:59:25 89° NNE 21:06:00 10° NW
Cosmos 1500 3.3 20:59:41 69° WNW 20:59:41 69° WNW 21:03:22 10° N
Cosmos 2227 Rocket 2.5 21:02:43 46° SE 21:03:17 47° ESE 21:08:41 10° NE
Cosmos 1470 Rocket 3.4 21:05:59 77° ESE 21:06:02 77° E 21:10:21 10° NNE
Cosmos 1633 Rocket 3.2 21:07:00 58° WSW 21:07:25 61° WNW 21:11:45 10° N
NOSS 2-2 (E) 4.4 21:06:09 10° NW 21:11:33 70° SW 21:13:31 47° SSE
Cosmos 1933 Rocket 3.7 21:12:20 59° E 21:12:23 59° E 21:16:48 10° NNE
Cosmos 2219 Rocket 3.8 21:09:25 10° NW 21:13:25 20° W 21:14:26 19° WSW
Cosmos 1666 Rocket 4.3 21:13:38 40° WSW 21:14:23 44° WNW 21:18:40 10° N
Cosmos 2242 Rocket 3.8 21:11:37 10° N 21:16:01 58° ENE 21:16:17 57° E
Cosmos 2263 Rocket 4.3 21:15:53 12° ESE 21:16:35 12° E 21:18:37 10° ENE
Cosmos 1340 Rocket 3.1 21:18:49 58° ENE 21:18:49 58° ENE 21:22:17 10° NNE
Cosmos 1378 3.6 21:18:05 10° N 21:21:18 56° NE 21:21:18 56° NE
Intercosmos 25 Rocket 4.3 21:23:21 42° E 21:23:42 43° E 21:29:10 10° NNE
SL-16 R/B 2.4 21:20:12 10° NNW 21:25:51 64° ENE 21:27:47 40° ESE
BREEZE-M DEB (TANK) 3.6 21:20:47 10° WSW 21:30:19 62° S 21:31:02 54° SE
ATLAS 5 CENTAUR R/B 3.4 21:28:01 10° WNW 21:32:53 28° WSW 21:33:05 28° WSW
Okean 3 3.7 21:35:07 10° N 21:39:22 58° ENE 21:39:31 58° E
Cosmos 909 Rocket 4.2 21:39:22 46° SSW 21:41:31 74° ESE 21:49:21 10° NE
Meteor 2-4 Rocket 4.3 21:35:59 10° NNW 21:41:38 47° W 21:42:55 40° SW
Meteor 1-11 Rocket 3.7 21:43:29 56° SSE 21:44:32 70° E 21:50:02 10° NNE
Cosmos 1709 Rocket 4.0 21:46:00 50° S 21:47:51 89° E 21:54:18 10° N
Cosmos 1743 3.6 21:50:41 39° ENE 21:50:41 39° ENE 21:53:54 10° NNE
Cosmos 1666 3.8 21:51:36 35° WNW 21:51:36 35° WNW 21:55:07 10° N
Cosmos 1703 Rocket 3.7 21:48:12 10° NNW 21:52:28 60° W 21:52:28 60° W
PSLV R/B 3.6 21:51:02 10° NNE 21:55:51 87° ESE 21:56:21 72° S
Cosmos 1992 Rocket 3.9 21:50:46 10° NNW 21:55:58 67° WSW 21:56:34 61° SSW
ASTEX 1 4.1 21:55:45 38° ESE 21:57:00 46° ENE 22:01:42 10° N
ALOS 2 4.3 21:59:22 21° W 21:59:22 21° W 22:02:37 10° NW
CZ-2D R/B 3.9 21:58:16 10° NE 22:02:22 21° E 22:04:14 18° ESE
Cosmos 2219 3.5 22:00:28 40° WSW 22:02:27 63° WNW 22:08:12 10° NNE
SL-8 R/B 4.3 22:05:05 42° ESE 22:05:05 42° ESE 22:08:38 10° E
Cosmos 1733 Rocket 4.2 22:04:35 31° ESE 22:05:08 32° E 22:09:07 10° NNE
Cosmos 1066 Rocket 4.3 21:59:36 10° NNW 22:05:28 70° W 22:06:49 52° SSW
Cosmos 2344 4.4 22:05:05 27° SE 22:07:11 32° ESE 22:13:41 10° NE
USA 267 3.6 22:01:11 10° NE 22:07:39 64° NNW 22:14:05 10° WSW
Meteor 1-13 Rocket 4.4 22:03:17 10° NNW 22:08:54 56° W 22:10:00 48° SW
Cosmos 1241 Rocket 4.5 22:08:08 48° SSW 22:10:05 74° ESE 22:16:35 10° NE
Timation 1 Rocket 4.4 22:08:15 44° SW 22:10:12 76° WNW 22:16:14 10° NNE
Meteor 1-23 Rocket 4.2 22:06:09 10° NNW 22:11:55 89° W 22:13:28 51° S
CZ-4C R/B 2.9 22:07:38 10° NW 22:14:48 89° NE 22:21:13 19° SE
Cosmos 2082 3.6 22:15:42 53° SSW 22:17:09 87° ESE 22:22:56 10° NNE
Okean 1-7 4.1 22:15:55 10° NNW 22:19:30 31° W 22:19:30 31° W
EO 1 Del DPAF 3.2 22:19:32 10° NNE 22:23:01 75° NE 22:23:01 75° NE
Cosmos 1536 3.3 22:23:27 49° WNW 22:23:28 49° WNW 22:27:25 10° N
Cosmos 2184 Rocket 4.2 22:21:22 40° SSE 22:23:34 65° E 22:29:50 10° NNE
NOSS 3-3 (A) 4.3 22:22:26 39° SSE 22:23:37 44° ESE 22:29:42 10° NE
NOSS 3-3 (C) 4.3 22:22:33 39° SSE 22:23:44 43° ESE 22:29:46 10° NE
Geosat 4.0 22:23:45 57° SSW 22:24:23 63° WSW 22:29:24 10° NW
Lacrosse 5 2.6 22:25:50 20° W 22:29:09 50° NNW 22:34:06 10° NE
Timation 2 Rocket 4.2 22:27:15 35° WSW 22:29:42 61° NW 22:35:51 10° NNE
Cosmos 2154 Rocket 4.4 22:29:44 33° SSE 22:32:14 53° E 22:38:16 10° NNE
Cosmos 2297 Rocket 3.5 22:32:07 20° W 22:35:18 33° NW 22:40:26 10° NNE
BREEZE-M R/B 3.2 22:31:56 12° W 22:35:22 87° N 22:45:09 10° E
ATLAS CENTAUR R/B 2.2 22:37:07 36° ESE 22:37:07 36° ESE 22:40:26 10° NE
Cosmos 1140 Rocket 4.0 22:36:08 41° SE 22:37:22 49° ESE 22:42:25 10° NNE
Thor Agena Rocket 4.4 22:32:48 10° N 22:37:29 40° WNW 22:39:01 32° WSW
Resurs 1-4 Rocket 2.9 22:33:24 10° NNE 22:38:25 40° E 22:40:13 31° SE
Cosmos 2074 Rocket 3.9 22:36:28 43° S 22:38:39 85° E 22:44:54 10° N
Cosmos 1869 Rocket 4.2 22:38:08 40° W 22:38:42 43° WNW 22:42:59 10° N
Cosmos 2237 Rocket 4.1 22:36:34 10° WNW 22:39:29 14° W 22:39:29 14° W
USA 234 3.9 22:42:59 33° SW 22:42:59 33° SW 22:48:43 10° WNW
CZ-4 R/B 3.9 22:39:20 10° NNE 22:44:22 82° ESE 22:45:37 52° S
Iridium 4 Rocket 4.4 22:39:37 10° N 22:45:13 52° E 22:48:20 26° SE
Cosmos 2227 Rocket 3.4 22:44:30 21° W 22:47:30 35° NW 22:52:40 10° NNE
Cosmos 1603 3.7 22:48:21 10° NNW 22:54:00 79° ENE 22:57:29 24° SE
Cosmos 1842 3.1 22:50:30 10° NNW 22:54:21 72° W 22:54:24 72° WSW
Cosmos 614 Rocket 4.3 22:53:10 41° WSW 22:54:45 59° WNW 22:59:57 10° NNE
USA 290 4.4 22:53:23 10° N 22:56:10 25° ENE 22:57:59 16° ESE
MOZ.5/SAFIR/RUBIN 5/SL-8 3.8 22:57:00 53° SSW 22:57:54 65° W 23:02:34 10° NNW
SL-16 R/B 2.6 22:55:15 26° SSE 22:58:57 79° ENE 23:05:11 10° NNW
Cosmos 1818 4.2 22:54:01 10° NNW 22:59:26 56° NE 23:04:49 10° SE
Cosmos 2263 Rocket 2.2 22:57:34 43° S 22:59:28 73° ESE 23:05:10 10° NNE
ADEOS II 3.4 22:58:23 10° NNE 23:03:06 32° E 23:05:54 20° SE
Cosmos 1190 Rocket 4.2 23:01:37 41° S 23:03:20 65° ESE 23:08:37 10° NNE
Cosmos 1238 Rocket 2.8 23:03:30 56° SE 23:03:57 62° E 23:08:03 10° NNE
Cosmos 1674 Rocket 3.5 23:01:37 10° NNW 23:06:05 77° W 23:07:02 54° SSW
Meteor 2-9 Rocket 4.0 23:04:40 44° SSW 23:06:28 84° W 23:11:55 10° N
Cosmos 44 3.6 23:02:33 10° NW 23:07:32 45° WSW 23:07:58 44° SW
ADEOS Rocket 2.9 23:05:10 24° SSE 23:08:34 72° ENE 23:14:07 10° N
Cosmos 1461 3.5 23:07:53 37° WSW 23:09:19 54° NW 23:13:38 10° NNE
SL-16 R/B 3.4 23:05:07 10° NW 23:09:29 23° WSW 23:09:38 23° WSW
Helios 1B rocket 3.3 23:06:22 10° NNE 23:10:16 41° E 23:11:32 32° SE
Cosmos 2251 Rocket 4.3 23:08:14 29° WSW 23:10:18 42° WNW 23:15:23 10° NNE
Cosmos 2227 4.1 23:16:15 39° SSW 23:18:27 84° ESE 23:24:07 10° NNE
Cosmos 1378 Rocket 3.6 23:17:54 10° NNW 23:22:11 60° W 23:23:05 48° SW
Cosmos 1626 4.0 23:19:31 10° NNE 23:22:43 27° ENE 23:25:42 11° SE
Cosmos 1356 Rocket 3.2 23:25:29 53° SSW 23:26:20 77° WNW 23:30:21 10° N
Helios 1A 3.9 23:27:02 32° W 23:27:10 32° W 23:30:58 10° NNW
BREEZE-M DEB (TANK) 2.4 23:28:24 59° ENE 23:28:24 59° ENE 23:30:56 10° ENE
Meteor 1-21 4.4 23:22:48 10° NNW 23:28:31 59° W 23:31:03 33° SSW
Cosmos 1975 3.2 23:27:56 43° WSW 23:28:44 51° WNW 23:32:44 10° N
Cosmos 1975 Rocket 3.8 23:25:17 10° N 23:29:33 49° ENE 23:32:42 17° SSE
Nadezhda 3 Rocket 4.3 23:29:00 10° NNW 23:35:08 52° W 23:38:05 30° SSW
Cosmos 1763 Rocket 3.8 23:32:11 10° NNW 23:37:31 68° ENE 23:42:46 10° SSE
Okean 2 3.9 23:34:22 10° NNW 23:38:18 41° W 23:39:01 38° WSW
IDEFIX/ARIANE 42P 3.7 23:34:53 10° NNE 23:39:44 38° E 23:43:38 15° SSE
BREEZE-M DEB (TANK) 3.9 23:41:40 26° SE 23:41:40 26° SE 23:43:08 10° E
MINOTAUR 4 R/B 4.4 23:39:52 25° SSE 23:41:44 64° ENE 23:45:18 10° N
Cosmos 1943 3.5 23:36:37 10° NW 23:42:06 48° WSW 23:44:45 28° SSW
CZ-2D R/B 2.3 23:37:29 10° N 23:42:51 65° WNW 23:45:33 30° SW
Cosmos 1733 Rocket 4.3 23:41:40 25° W 23:42:57 29° WNW 23:46:51 10° N
Cosmos 1908 Rocket 3.5 23:41:55 39° SSW 23:43:26 69° WNW 23:47:47 10° N
Cosmos 1340 2.5 23:39:59 10° NNW 23:43:46 89° E 23:45:18 34° SSE
KORONAS-FOTON 3.8 23:40:02 10° N 23:43:59 81° E 23:45:54 29° SSE
NPP 3.6 23:38:48 10° NNE 23:44:13 76° WNW 23:46:59 30° SSW
Cosmos 407 Rocket 4.1 23:43:30 27° WSW 23:45:58 46° WNW 23:51:00 10° NNE
SL-24 R/B - RUBIN 2 4.2 23:41:43 10° NW 23:46:21 39° WSW 23:47:25 34° SSW
SL-8 R/B 3.6 23:43:02 20° W 23:46:23 89° S 23:51:13 10° E
Cosmos 2341 Rocket 3.9 23:42:52 26° S 23:46:38 87° W 23:52:53 10° N
Cosmos 676 Rocket 4.0 23:45:18 31° SSW 23:47:58 89° WNW 23:53:21 10° NNE
USA 267 4.4 23:44:00 10° ENE 23:50:06 43° N 23:56:12 10° WNW
UNK 4.2 23:49:05 32° SW 23:50:35 43° W 23:55:02 10° NNW
Cosmos 540 Rocket 4.3 23:47:19 10° NNW 23:52:25 52° ENE 23:57:28 10° SE
AQUA 3.8 23:49:12 10° N 23:53:58 71° WNW 23:56:19 29° SSW
Cosmos 1733 4.1 23:53:05 20° SSE 23:55:24 44° E 23:59:03 10° NNE
